This demonstration page uses our WeatherBlox Daily Observations layout. Learn more.

Left ArrowRight Arrow

39.08367, -84.50855

Hourly Observations for March 27, 2016

Temp ( °F °C ) Dew Point ( °F °C ) Humidity (%) Winds ( mph kmh ) Pressure ( in mb ) Visibility ( mi km ) Precip ( " mm )
12:53 am 00:53 Clear 40 4.4 39 3.9 97 97 N N/A 30.13 1020 10 16.0934 N/A
1:53 am 01:53 Clear 40 4.4 38 3.3 93 93 N N/A 30.13 1020 10 16.0934 N/A
2:53 am 02:53 Clear 39 3.9 38 3.3 96 96 N N/A 30.13 1020 10 16.0934 N/A
3:53 am 03:53 Clear 38 3.3 38 3.3 100 100 N N/A 30.12 1020 9 14.48406 N/A
4:53 am 04:53 Clear 38 3.3 37 2.8 97 97 N N/A 30.12 1020 10 16.0934 N/A
5:53 am 05:53 Clear 37 2.8 37 2.8 100 100 N N/A 30.1 1019 7 11.26538 N/A
6:53 am 06:53 Clear 38 3.3 37 2.8 97 97 N N/A 30.11 1020 10 16.0934 N/A
7:53 am 07:53 Sunny 37 2.8 37 2.8 100 100 N N/A 30.1 1019 7 11.26538 N/A
8:53 am 08:53 Sunny 43 6.1 42 5.6 97 97 N N/A 30.11 1020 9 14.48406 N/A
9:53 am 09:53 Sunny 51 10.6 44 6.7 77 77 WSW 6 9 30.1 1019 10 16.0934 N/A
10:53 am 10:53 Sunny 60 15.6 51 10.6 72 72 SSE 5 7 30.08 1019 10 16.0934 N/A
11:53 am 11:53 Sunny 65 18.3 54 12.2 68 68 SSE 5 7 30.03 1017 10 16.0934 N/A
12:53 pm 12:53 Sunny 71 21.7 59 15 66 66 SSW 12 19 29.99 1016 10 16.0934 N/A
1:53 pm 13:53 Mostly Cloudy 73 22.8 59 15 62 62 S 13 20 29.96 1014 10 16.0934 N/A
2:53 pm 14:53 Mostly Cloudy 73 22.8 59 15 62 62 SW 12 19 29.92 1013 10 16.0934 N/A
3:53 pm 15:53 Mostly Cloudy 74 23.3 57 13.9 56 56 S 13 20 29.88 1012 10 16.0934 N/A
4:53 pm 16:53 Partly Cloudy 73 22.8 57 13.9 57 57 SSE 15 24 29.86 1011 10 16.0934 N/A
5:53 pm 17:53 Partly Cloudy 73 22.8 58 14.4 59 59 S 15 24 29.83 1010 10 16.0934 N/A
6:53 pm 18:53 Mostly Sunny 71 21.7 57 13.9 61 61 S 18 30 29.8 1009 10 16.0934 N/A
7:53 pm 19:53 Sunny 69 20.6 56 13.3 63 63 S 12 19 29.78 1009 10 16.0934 N/A
8:53 pm 20:53 Clear 68 20 56 13.3 65 65 S 8 13 29.72 1007 10 16.0934 N/A
9:53 pm 21:53 Mostly Cloudy 67 19.4 57 13.9 71 71 S 10 17 29.72 1007 10 16.0934 N/A
10:37 pm 22:37 Cloudy with Rain 65 18.3 59 15 81 81 SW 13 20 29.74 1007 8 12.87472 0.02 0.508
10:49 pm 22:49 Cloudy with Nearby Thunderstorms 64 18 61 16 88 88 SW 10 17 29.74 1007 2.5 4.02335 N/A
10:53 pm 22:53 Cloudy with Nearby Thunderstorms 63 17.2 60 15.6 90 90 SW 10 17 29.74 1007 2 3.21868 0.11 2.794
11:08 pm 23:08 Cloudy with Nearby Thunderstorms 62 16.7 61 16.1 96 96 SW 6 9 29.74 1007 2.5 4.02335 0.07 1.778
11:15 pm 23:15 Cloudy with Nearby Thunderstorms 62 16.7 61 16.1 96 96 WSW 8 13 29.74 1007 3 4.82802 0.11 2.794
11:19 pm 23:19 Cloudy with Heavy Thunderstorms 62 16.7 61 16.1 96 96 WSW 16 26 29.74 1007 1.75 2.816345 0.18 4.572
11:28 pm 23:28 Cloudy with Heavy Thunderstorms 63 17 61 16 94 94 SSW 14 22 29.74 1007 2 3.21868 N/A
11:33 pm 23:33 Cloudy with Nearby Thunderstorms 61 16.1 60 15.6 97 97 SW 20 31 29.77 1008 2 3.21868 0.34 8.636
11:40 pm 23:40 Cloudy with Heavy Thunderstorms 59 15 57 14 94 94 W 18 30 29.77 1008 1.5 2.41401 N/A
11:44 pm 23:44 Cloudy with Heavy Thunderstorms 57 14 57 14 100 100 W 18 30 29.77 1008 2.5 4.02335 N/A
11:50 pm 23:50 Cloudy with Heavy Rain 57 14 57 14 100 100 W 16 26 29.77 1008 3 4.82802 N/A
11:53 pm 23:53 Cloudy with Heavy Rain 57 13.9 57 13.9 100 100 W 16 26 29.77 1008 3 4.82802 0.47 11.938

Powered by AerisWeather